KU9TRY Weather Reports


time (UTC)temp
C
wind
direction
speed
KPH
gust
KPH
rain 1hr
cm
rain 24hr
cm
rain mn
cm
humidity
%
barometer
mb
20260906114039 -17 0.0 0.0 0.00 0.00 0.00 1013.6
20260906113538 -17 0.0 0.0 0.00 0.00 0.00 1013.6
20260906113033 -17 0.0 0.0 0.00 0.00 0.00 1013.5
20260906112528 -17 0.0 0.0 0.00 0.00 0.00 1013.6
20260906112025 -17 0.0 0.0 0.00 0.00 0.00 1013.5
20260906111524 -17 0.0 0.0 0.00 0.00 0.00 1013.2
20260906111020 -17 0.0 0.0 0.00 0.00 0.00 1013.3
20260906110520 -17 0.0 0.0 0.00 0.00 0.00 1013.4
20260906110019 -17 0.0 0.0 0.00 0.00 0.00 1013.3
20260906105514 20 287 0.0 0.0 0.00 0.08 0.08 99 1013.4
20260906105010 20 287 0.0 0.0 0.00 0.08 0.08 99 1013.4
20260906104508 20 287 0.0 0.0 0.00 0.08 0.08 99 1013.4
20260906104003 20 287 0.0 0.0 0.00 0.08 0.08 99 1013.4
20260906103501 20 287 0.0 0.0 0.00 0.08 0.08 99 1013.2
20260906102956 20 287 0.0 0.0 0.00 0.08 0.08 99 1013.3
20260906102451 -17 0.0 0.0 0.00 0.00 0.00 1013.3
20260906101951 -17 0.0 0.0 0.00 0.00 0.00 1013.2
20260906101446 20 287 0.0 0.0 0.00 0.08 0.08 99 1013.2
20260906100941 20 287 0.0 0.0 0.00 0.08 0.08 99 1013.2
20260906100436 -17 0.0 0.0 0.00 0.00 0.00 1013.1
20260906095935 20 287 0.0 0.0 0.00 0.08 0.08 99 1013.2
20260906095431 20 287 0.0 0.0 0.00 0.08 0.08 99 1013.1
20260906094926 20 287 0.0 0.0 0.00 0.08 0.08 99 1013.1
20260906094420 20 287 0.0 0.0 0.00 0.08 0.08 99 1013.4
20260906093916 21 287 0.0 0.0 0.00 0.08 0.08 99 1013.1
20260906093413 21 287 0.0 0.0 0.00 0.08 0.08 99 1013.2
20260906092912 20 287 0.0 0.0 0.00 0.08 0.08 99 1013.3
20260906092412 20 287 0.0 0.0 0.00 0.08 0.08 99 1013.1
20260906091908 20 287 0.0 0.0 0.00 0.08 0.08 99 1013.0
20260906091404 20 287 0.0 0.0 0.00 0.08 0.08 99 1013.0
20260906090900 20 287 0.0 0.0 0.00 0.08 0.08 99 1013.0
20260906090359 20 287 0.0 0.0 0.00 0.08 0.08 99 1012.8
20260906085854 20 287 0.0 0.0 0.00 0.08 0.08 98 1012.9
20260906085354 20 286 0.0 0.0 0.00 0.08 0.08 98 1012.9
20260906084848 20 286 0.0 0.0 0.00 0.08 0.08 98 1013.1
20260906084348 20 285 0.0 0.0 0.00 0.08 0.08 98 1013.2
20260906083842 21 291 0.0 0.0 0.00 0.08 0.08 98 1013.0
20260906083338 21 291 0.0 0.0 0.00 0.08 0.08 98 1012.8
20260906082838 21 292 0.0 0.0 0.00 0.08 0.08 98 1012.8
20260906082333 21 295 0.0 0.0 0.00 0.08 0.08 98 1012.9
20260906081829 21 296 0.0 0.0 0.00 0.08 0.08 98 1012.9
20260906081325 20 295 0.0 0.0 0.00 0.08 0.08 98 1012.9
20260906080820 21 308 0.0 0.0 0.00 0.08 0.08 98 1012.9
20260906080317 20 318 0.0 0.0 0.00 0.08 0.08 98 1012.9
20260906075816 21 292 0.0 0.0 0.00 0.08 0.08 98 1012.9
20260906075315 21 282 1.6 1.6 0.00 0.08 0.08 98 1012.9
20260906074811 21 309 0.0 0.0 0.00 0.08 0.08 98 1013.0
20260906074310 21 310 0.0 0.0 0.00 0.08 0.08 98 1013.1
20260906073810 21 310 0.0 0.0 0.00 0.08 0.08 98 1013.0
20260906073305 21 304 0.0 0.0 0.00 0.08 0.08 98 1012.8
20260906072801 21 304 0.0 0.0 0.00 0.08 0.08 98 1013.1
20260906072256 21 304 0.0 0.0 0.00 0.08 0.08 98 1012.9
20260906071752 21 304 0.0 0.0 0.00 0.08 0.08 98 1013.2
20260906071252 21 304 0.0 0.0 0.00 0.08 0.08 98 1013.1
20260906070749 21 304 0.0 0.0 0.00 0.08 0.08 98 1013.2
20260906070244 21 304 0.0 0.0 0.00 0.08 0.08 98 1013.4
20260906065744 21 304 0.0 0.0 0.00 0.08 0.08 98 1013.4
20260906065239 21 297 0.0 0.0 0.00 0.08 0.08 98 1013.5
20260906064735 21 280 1.6 1.6 0.00 0.08 0.08 98 1013.6
20260906064230 21 219 3.2 4.8 0.00 0.08 0.08 98 1013.6
20260906063725 21 286 1.6 1.6 0.00 0.08 0.08 98 1013.4
20260906063221 21 294 1.6 1.6 0.00 0.08 0.08 98 1013.5
20260906062716 21 277 3.2 3.2 0.00 0.08 0.08 98 1013.2
20260906062215 21 296 0.0 0.0 0.00 0.08 0.08 98 1013.2
20260906061711 21 288 1.6 0.0 0.00 0.08 0.08 97 1013.1
20260906061207 21 306 0.0 0.0 0.00 0.08 0.08 97 1013.1
20260906060703 21 306 0.0 0.0 0.00 0.08 0.08 97 1013.1
20260906060200 21 289 0.0 0.0 0.00 0.08 0.08 97 1013.2
20260906055655 21 290 0.0 0.0 0.00 0.08 0.08 97 1012.8
20260906055150 21 309 0.0 0.0 0.00 0.08 0.08 97 1013.2
20260906054646 21 293 0.0 0.0 0.00 0.08 0.08 97 1013.1
20260906054140 21 286 0.0 0.0 0.00 0.08 0.08 97 1013.1
20260906053637 20 302 1.6 1.6 0.00 0.08 0.08 97 1013.2
20260906053137 20 282 1.6 3.2 0.13 0.08 0.08 96 1013.1
20260906052633 20 308 1.6 1.6 0.13 0.08 0.08 96 1012.9
20260906052129 20 286 1.6 1.6 0.00 0.05 0.05 95 1013.0
20260906051626 20 236 1.6 3.2 0.00 0.05 0.05 95 1013.1
20260906051125 21 183 6.4 6.4 0.30 0.05 0.05 95 1013.7
20260906050621 21 287 1.6 1.6 1.55 0.05 0.05 95 1013.9
20260906050116 21 200 4.8 6.4 1.50 0.03 0.03 94 1014.1
20260906045614 22 271 1.6 1.6 1.32 1.24 1.24 94 1014.4
20260906045110 22 275 3.2 3.2 1.68 1.17 1.17 93 1014.7
20260906044606 22 277 4.8 4.8 3.25 1.02 1.02 92 1015.0
20260906044101 23 334 3.2 6.4 4.67 0.91 0.91 91 1015.6
20260906043557 25 294 6.4 9.7 3.48 0.58 0.58 92 1015.0
20260906043052 26 316 9.7 12.9 0.61 0.10 0.10 86 1015.0
20260906042551 26 286 1.6 1.6 0.00 0.00 0.00 84 1014.6
20260906042046 25 280 1.6 1.6 0.00 0.00 0.00 85 1014.4
20260906041542 25 288 1.6 1.6 0.00 0.00 0.00 86 1014.3
20260906041037 25 290 0.0 0.0 0.00 0.00 0.00 89 1014.2
20260906040532 25 325 0.0 0.0 0.00 0.00 0.00 88 1013.3
20260906040028 25 285 0.0 0.0 0.00 0.00 0.00 88 1013.1
20260906035522 25 284 0.0 0.0 0.00 0.00 0.00 88 1013.5
20260906035019 25 284 0.0 0.0 0.00 0.00 0.00 88 1013.7
20260906034518 25 285 0.0 0.0 0.00 0.00 0.00 87 1013.6
20260906034013 25 284 0.0 0.0 0.00 0.00 0.00 87 1013.9
20260906033508 25 284 0.0 0.0 0.00 0.00 0.00 88 1014.1
20260906033004 25 284 0.0 0.0 0.00 0.00 0.00 88 1013.8
20260906032501 25 284 0.0 0.0 0.00 0.00 0.00 88 1013.6
20260906032000 25 284 0.0 0.0 0.00 0.00 0.00 88 1013.2
20260906031456 25 284 0.0 0.0 0.00 0.00 0.00 88 1013.0
20260906030951 25 285 0.0 0.0 0.00 0.00 0.00 87 1013.0
20260906030446 25 284 0.0 0.0 0.00 0.00 0.00 86 1012.8
20260906025940 25 284 0.0 0.0 0.00 0.00 0.00 87 1012.9
20260906025440 25 284 0.0 0.0 0.00 0.00 0.00 87 1012.9
20260906024938 25 284 0.0 0.0 0.00 0.00 0.00 86 1013.0
20260906024439 25 284 0.0 0.0 0.00 0.00 0.00 86 1013.0
20260906023939 25 285 0.0 0.0 0.00 0.00 0.00 86 1012.9
20260906023436 25 284 0.0 0.0 0.00 0.00 0.00 86 1012.8
20260906022936 25 284 0.0 0.0 0.00 0.00 0.00 85 1012.5
20260906022431 25 284 0.0 0.0 0.00 0.00 0.00 85 1012.5
20260906021926 25 284 0.0 0.0 0.00 0.00 0.00 85 1012.5
20260906021427 25 284 0.0 0.0 0.00 0.00 0.00 85 1012.4
20260906020926 25 284 0.0 0.0 0.00 0.00 0.00 85 1012.3
20260906020421 25 284 0.0 0.0 0.00 0.00 0.00 85 1012.1
20260906015921 25 284 0.0 0.0 0.00 0.00 0.00 85 1012.1
20260906015421 25 284 0.0 0.0 0.00 0.00 0.00 84 1012.2
20260906014920 26 284 0.0 0.0 0.00 0.00 0.00 84 1012.0
20260906014420 26 284 0.0 0.0 0.00 0.00 0.00 83 1012.2
20260906013916 26 284 0.0 0.0 0.00 0.00 0.00 83 1012.3
20260906013412 26 284 0.0 0.0 0.00 0.00 0.00 82 1012.3
20260906012907 26 284 0.0 0.0 0.00 0.00 0.00 81 1012.3
20260906012402 26 284 0.0 0.0 0.00 0.00 0.00 80 1012.2
20260906011901 26 285 0.0 0.0 0.00 0.00 0.00 80 1012.3
20260906011356 26 285 0.0 0.0 0.00 0.00 0.00 79 1012.2
20260906010852 26 285 0.0 0.0 0.00 0.00 0.00 79 1012.1
20260906010348 26 285 0.0 0.0 0.00 0.00 0.00 80 1012.0
20260906005844 27 285 0.0 0.0 0.00 0.00 0.00 80 1012.1
20260906005343 27 285 0.0 0.0 0.00 0.00 0.00 78 1012.1
20260906004842 27 285 0.0 0.0 0.00 0.00 0.00 78 1012.1
20260906004342 27 285 0.0 0.0 0.00 0.00 0.00 77 1012.0
20260906003837 27 285 0.0 0.0 0.00 0.00 0.00 78 1012.3
20260906003332 27 284 0.0 0.0 0.00 0.00 0.00 75 1012.1
20260906002827 27 284 0.0 0.0 0.00 0.00 0.00 75 1012.3
20260906002327 27 294 0.0 0.0 0.00 0.00 0.00 75 1012.2
20260906001823 27 294 0.0 0.0 0.00 0.00 0.00 75 1012.3
20260906001318 27 295 0.0 0.0 0.00 0.00 0.00 74 1012.4
20260906000813 27 295 0.0 0.0 0.00 0.00 0.00 74 1012.3
20260906000307 28 295 0.0 0.0 0.00 0.00 0.00 74 1012.2
20260905235802 28 295 0.0 0.0 0.00 0.00 0.00 72 1011.9
20260905235306 28 295 0.0 0.0 0.00 0.00 0.00 73 1012.1
20260905234758 28 283 0.0 0.0 0.00 0.00 0.00 71 1012.1
20260905234253 28 283 0.0 0.0 0.00 0.00 0.00 71 1011.9
20260905233748 29 284 1.6 1.6 0.00 0.00 0.00 69 1011.8
20260905233248 29 290 1.6 1.6 0.00 0.00 0.00 68 1011.6
20260905232747 29 279 0.0 0.0 0.00 0.00 0.00 68 1011.6
20260905232243 29 285 0.0 0.0 0.00 0.00 0.00 68 1011.7
20260905231739 30 284 0.0 0.0 0.00 0.00 0.00 67 1011.4
20260905231234 30 287 1.6 1.6 0.00 0.00 0.00 66 1011.5
20260905230730 30 290 0.0 0.0 0.00 0.00 0.00 65 1011.5
20260905230228 30 275 3.2 3.2 0.00 0.00 0.00 65 1011.7
20260905225728 30 276 3.2 3.2 0.00 0.00 0.00 63 1011.6
20260905225223 30 284 1.6 1.6 0.00 0.00 0.00 64 1011.6
20260905224722 30 285 1.6 1.6 0.00 0.00 0.00 64 1011.9
20260905224217 30 270 3.2 3.2 0.00 0.00 0.00 64 1011.9
20260905223714 30 287 0.0 0.0 0.00 0.00 0.00 63 1012.0
20260905223210 30 270 0.0 0.0 0.00 0.00 0.00 64 1012.0
20260905222706 30 278 1.6 1.6 0.00 0.00 0.00 63 1012.0
20260905222205 31 279 1.6 1.6 0.00 0.00 0.00 62 1012.1
20260905221700 31 281 0.0 0.0 0.00 0.00 0.00 59 1012.2
20260905221158 31 287 1.6 1.6 0.00 0.00 0.00 60 1012.2
20260905220653 31 322 0.0 0.0 0.00 0.00 0.00 58 1012.2
20260905220149 30 292 1.6 1.6 0.00 0.00 0.00 59 1012.1
20260905215648 30 281 0.0 0.0 0.00 0.00 0.00 61 1011.9
20260905215144 30 282 0.0 0.0 0.00 0.00 0.00 61 1011.8
20260905214641 30 282 0.0 0.0 0.00 0.00 0.00 60 1012.1
20260905214140 31 281 1.6 1.6 0.00 0.00 0.00 60 1012.1
20260905213636 31 282 0.0 0.0 0.00 0.00 0.00 61 1012.1
20260905213131 31 282 0.0 0.0 0.00 0.00 0.00 61 1012.3
20260905212627 31 282 0.0 0.0 0.00 0.00 0.00 60 1012.1
20260905212127 31 282 0.0 0.0 0.00 0.00 0.00 55 1012.2
20260905211627 31 315 0.0 0.0 0.00 0.00 0.00 59 1012.3
20260905211122 30 356 0.0 0.0 0.00 0.00 0.00 63 1012.2
20260905210619 30 292 0.0 0.0 0.00 0.00 0.00 64 1012.3
20260905210113 30 300 0.0 0.0 0.00 0.00 0.00 62 1012.2
20260905205613 30 296 0.0 0.0 0.00 0.00 0.00 63 1012.2
20260905205112 30 286 1.6 1.6 0.00 0.00 0.00 63 1012.4
20260905204612 30 306 0.0 0.0 0.00 0.00 0.00 60 1012.5
20260905204107 30 289 0.0 0.0 0.00 0.00 0.00 60 1012.3
20260905203602 30 278 1.6 1.6 0.00 0.00 0.00 61 1012.3
20260905203057 30 279 0.0 0.0 0.00 0.00 0.00 60 1012.4
20260905202553 30 279 1.6 1.6 0.00 0.00 0.00 59 1012.6
20260905202048 30 279 1.6 1.6 0.00 0.00 0.00 61 1012.7
20260905201543 30 283 0.0 0.0 0.00 0.00 0.00 57 1012.7
20260905201043 30 282 0.0 0.0 0.00 0.00 0.00 59 1012.6
20260905200538 31 289 0.0 0.0 0.00 0.00 0.00 55 1012.7
20260905200038 31 293 0.0 0.0 0.00 0.00 0.00 53 1012.9
20260905195532 31 293 0.0 0.0 0.00 0.00 0.00 51 1012.6
20260905195028 31 293 0.0 0.0 0.00 0.00 0.00 48 1012.9
20260905194527 31 287 1.6 1.6 0.00 0.00 0.00 48 1012.8
20260905194027 31 323 1.6 1.6 0.00 0.00 0.00 48 1013.1
20260905193521 31 310 1.6 1.6 0.00 0.00 0.00 49 1013.0
20260905193017 30 183 8.0 11.3 0.00 0.00 0.00 51 1013.2
20260905192512 30 226 1.6 3.2 0.00 0.00 0.00 53 1013.2
20260905192008 29 287 1.6 1.6 0.00 0.00 0.00 57 1013.6
20260905191507 28 304 0.0 0.0 0.00 0.00 0.00 60 1013.7
20260905191007 28 317 9.7 14.5 0.00 0.00 0.00 59 1014.1
20260905190504 28 296 6.4 9.7 0.00 0.00 0.00 58 1013.9
20260905190003 29 9 6.4 9.7 0.00 0.00 0.00 55 1014.2
20260905185458 30 10 19.3 24.1 0.00 0.00 0.00 56 1014.7
20260905184957 32 330 11.3 14.5 0.00 0.00 0.00 55 1014.1
20260905184452 36 21 11.3 17.7 0.00 0.00 0.00 47 1014.1
20260905183951 36 347 3.2 4.8 0.00 0.00 0.00 44 1013.5
20260905183450 37 351 8.0 11.3 0.00 0.00 0.00 43 1013.4
20260905182945 36 347 0.0 0.0 0.00 0.00 0.00 46 1013.0
20260905182445 36 339 6.4 4.8 0.00 0.00 0.00 44 1013.1
20260905181940 36 317 0.0 0.0 0.00 0.00 0.00 44 1013.1
20260905181435 36 285 3.2 3.2 0.00 0.00 0.00 44 1013.3
20260905180934 36 353 3.2 3.2 0.00 0.00 0.00 43 1013.5
20260905180429 36 339 6.4 6.4 0.00 0.00 0.00 44 1013.4
20260905175924 36 315 1.6 1.6 0.00 0.00 0.00 46 1013.6
20260905175423 36 351 4.8 4.8 0.00 0.00 0.00 45 1013.6
20260905174919 36 300 1.6 3.2 0.00 0.00 0.00 44 1013.6
20260905174414 36 0 0.0 0.0 0.00 0.00 0.00 49 1013.7
20260905173910 35 216 4.8 4.8 0.00 0.00 0.00 49 1013.6
20260905173407 36 170 6.4 6.4 0.00 0.00 0.00 49 1014.0
20260905172907 36 340 3.2 4.8 0.00 0.00 0.00 48 1013.9
20260905172404 35 317 1.6 1.6 0.00 0.00 0.00 50 1014.0
20260905171900 35 313 1.6 1.6 0.00 0.00 0.00 50 1013.8
20260905171357 35 331 1.6 1.6 0.00 0.00 0.00 52 1014.1
20260905170853 35 347 6.4 6.4 0.00 0.00 0.00 51 1014.2
20260905170349 35 103 3.2 3.2 0.00 0.00 0.00 52 1014.1
20260905165848 34 237 1.6 3.2 0.00 0.00 0.00 54 1014.3
20260905165343 34 343 1.6 3.2 0.00 0.00 0.00 55 1014.3
20260905164838 34 208 4.8 4.8 0.00 0.00 0.00 53 1014.5
20260905164333 33 292 3.2 3.2 0.00 0.00 0.00 55 1014.6
20260905163829 33 179 4.8 4.8 0.00 0.00 0.00 57 1014.5
20260905163325 33 177 6.4 6.4 0.00 0.00 0.00 57 1014.7
20260905162821 33 263 6.4 6.4 0.00 0.00 0.00 56 1014.8
20260905162320 33 313 0.0 0.0 0.00 0.00 0.00 56 1015.0
20260905161815 33 317 0.0 0.0 0.00 0.00 0.00 57 1014.8
20260905161314 33 348 6.4 6.4 0.00 0.00 0.00 58 1014.9
20260905160812 32 321 1.6 3.2 0.00 0.00 0.00 60 1014.8
20260905160307 32 320 1.6 1.6 0.00 0.00 0.00 60 1015.0
20260905155802 31 340 3.2 4.8 0.00 0.00 0.00 62 1015.0
20260905155300 31 335 3.2 3.2 0.00 0.00 0.00 63 1015.2
20260905154755 31 0 1.6 1.6 0.00 0.00 0.00 67 1015.1
20260905154251 31 344 3.2 3.2 0.00 0.00 0.00 69 1015.3
20260905153746 30 307 1.6 1.6 0.00 0.00 0.00 71 1015.1
20260905153242 30 306 0.0 0.0 0.00 0.00 0.00 73 1015.2
20260905152737 30 325 1.6 1.6 0.00 0.00 0.00 74 1015.1
20260905152237 30 321 0.0 0.0 0.00 0.00 0.00 74 1015.2
20260905151736 30 310 0.0 0.0 0.00 0.00 0.00 74 1015.2
20260905151233 30 285 1.6 1.6 0.00 0.00 0.00 74 1015.1
20260905150732 30 311 0.0 0.0 0.00 0.00 0.00 74 1015.3
20260905150231 30 315 1.6 1.6 0.00 0.00 0.00 74 1015.3
20260905145729 29 307 1.6 1.6 0.00 0.00 0.00 75 1015.4
20260905145224 29 313 0.0 0.0 0.00 0.00 0.00 76 1015.4
20260905144723 29 321 3.2 3.2 0.00 0.00 0.00 77 1015.5
20260905144218 29 341 4.8 4.8 0.00 0.00 0.00 76 1015.5
20260905143717 28 310 0.0 0.0 0.00 0.00 0.00 77 1015.5
20260905143217 28 321 1.6 1.6 0.00 0.00 0.00 78 1015.5
20260905142715 28 328 1.6 1.6 0.00 0.00 0.00 79 1015.6
20260905142210 27 317 0.0 0.0 0.00 0.00 0.00 81 1015.4
20260905141706 27 325 1.6 1.6 0.00 0.00 0.00 83 1015.7
20260905141202 27 326 3.2 1.6 0.00 0.00 0.00 83 1015.4
20260905140657 27 319 0.0 0.0 0.00 0.00 0.00 84 1015.4
20260905140151 27 325 0.0 0.0 0.00 0.00 0.00 84 1015.5
20260905135646 26 321 0.0 0.0 0.00 0.00 0.00 85 1015.6
20260905135142 26 321 0.0 0.0 0.00 0.00 0.00 86 1015.5
20260905134641 26 323 0.0 0.0 0.00 0.00 0.00 87 1015.6
20260905134140 25 309 0.0 0.0 0.00 0.00 0.00 89 1015.5
20260905133636 25 299 0.0 0.0 0.00 0.00 0.00 89 1015.7
20260905133136 25 321 0.0 0.0 0.00 0.00 0.00 90 1015.6
20260905132635 25 293 0.0 0.0 0.00 0.00 0.00 90 1015.8
20260905132130 24 293 0.0 0.0 0.00 0.00 0.00 91 1015.8
20260905131625 24 293 0.0 0.0 0.00 0.00 0.00 91 1015.8
20260905131121 23 293 0.0 0.0 0.00 0.00 0.00 93 1015.9
20260905130621 23 293 0.0 0.0 0.00 0.00 0.00 92 1015.9
20260905130115 23 291 0.0 0.0 0.00 0.00 0.00 93 1015.9
20260905125615 23 291 0.0 0.0 0.00 0.00 0.00 94 1015.7
20260905125110 23 290 0.0 0.0 0.00 0.00 0.00 95 1015.9
20260905124607 23 290 0.0 0.0 0.00 0.00 0.00 95 1016.1
20260905124103 23 290 0.0 0.0 0.00 0.00 0.00 95 1015.9
20260905123558 22 290 0.0 0.0 0.00 0.00 0.00 95 1016.0
20260905123055 22 290 0.0 0.0 0.00 0.00 0.00 96 1016.1
20260905122555 22 290 0.0 0.0 0.00 0.00 0.00 96 1015.9
20260905122055 22 290 0.0 0.0 0.00 0.00 0.00 97 1015.7
20260905121549 22 290 0.0 0.0 0.00 0.00 0.00 97 1015.7
20260905121045 22 290 0.0 0.0 0.00 0.00 0.00 98 1015.7
20260905120544 22 290 0.0 0.0 0.00 0.00 0.00 98 1015.6
20260905120039 22 290 0.0 0.0 0.00 0.00 0.00 98 1015.6
20260905115538 22 290 0.0 0.0 0.00 0.00 0.00 98 1015.7
20260905115033 22 290 0.0 0.0 0.00 0.00 0.00 98 1015.4
20260905114532 22 290 0.0 0.0 0.00 0.00 0.00 98 1015.6